World > North America > United States > New York
Hourly Weather in Radisson, New YorkRadisson, New York Hourly Weather

Radisson, NY Hourly Weather

Hourly Weather Radisson, New YorkHourly Weather in Radisson, NY
Lat: 43.17N, Lon: 76.34W  ICAO: KSYR
Web Search

Helpful Tip: Abbreviated, 7 Day, 14 Day Forecasts. There is a weather forecast for every taste.

Feedback

Radisson Hourly Weather

36 Hour Weather Scroll   °F Click to change Radisson hourly weather to Imperial units.Click to change Radisson hourly weather to Metric units. °C
Currently, Overcast, temperature is 63°F17°C, dew point 54°F12°C, humidity 73%. Wind direction is WSW at 7 mph11 km/h with visibility of 10.00 mi16 km. Barometric pressure is 30 in1016 mb.

Oct 20
7:00 PM

Oct 20
8:00 PM

Oct 20
9:00 PM

Oct 20
10:00 PM

Oct 20
11:00 PM

Oct 21
MIDNIGHT

Oct 21
1:00 AM

Oct 21
2:00 AM

Oct 21
3:00 AM

Oct 21
4:00 AM

Oct 21
5:00 AM

Oct 21
6:00 AM

Oct 21
7:00 AM

Oct 21
8:00 AM

Oct 21
9:00 AM

Oct 21
10:00 AM

Oct 21
11:00 AM

Oct 21
NOON

Oct 21
1:00 PM

Oct 21
2:00 PM

Oct 21
3:00 PM

Oct 21
4:00 PM

Oct 21
5:00 PM

Oct 21
6:00 PM

Oct 21
7:00 PM

Oct 21
8:00 PM

Oct 21
9:00 PM

Oct 21
10:00 PM

Oct 21
11:00 PM

Oct 22
MIDNIGHT

Oct 22
1:00 AM

Oct 22
2:00 AM

Oct 22
3:00 AM

Oct 22
4:00 AM

Oct 22
5:00 AM

Oct 22
6:00 AM
Mostly Cloudy Mostly Cloudy Mostly Cloudy Mostly Cloudy Mostly Cloudy Mostly Cloudy Mostly Cloudy Mostly Cloudy Mostly Cloudy Cloudy Cloudy Cloudy Cloudy Cloudy Cloudy Mostly Cloudy Mostly Cloudy Mostly Cloudy Mostly Cloudy Mostly Cloudy Mostly Cloudy Cloudy Cloudy Cloudy Cloudy Cloudy Cloudy Cloudy Cloudy Cloudy Cloudy Cloudy Cloudy Cloudy Cloudy Cloudy
Mostly Cloudy Mostly Cloudy Mostly Cloudy Mostly Cloudy Mostly Cloudy Mostly Cloudy Mostly Cloudy Mostly Cloudy Mostly Cloudy Cloudy Cloudy Cloudy Cloudy Cloudy Cloudy Mostly Cloudy Mostly Cloudy Mostly Cloudy Mostly Cloudy Mostly Cloudy Mostly Cloudy Cloudy Cloudy Cloudy Cloudy Cloudy Cloudy Cloudy Cloudy Cloudy Cloudy Cloudy Cloudy Cloudy Cloudy Cloudy
63°F17°C 61°F16°C 60°F16°C 59°F15°C 58°F14°C 57°F14°C 56°F13°C 55°F13°C 55°F13°C 54°F12°C 54°F12°C 54°F12°C 53°F12°C 53°F12°C 56°F13°C 59°F15°C 62°F17°C 64°F18°C 66°F19°C 68°F20°C 68°F20°C 68°F20°C 68°F20°C 66°F19°C 65°F18°C 63°F17°C 62°F17°C 61°F16°C 60°F16°C 59°F15°C 58°F14°C 57°F14°C 56°F13°C 55°F13°C 54°F12°C 53°F12°C
- - - - - - - - Rain Rain Rain Rain Rain Rain Rain Rain Rain Rain Rain Rain Rain Rain Rain Rain Rain Rain Rain Rain Rain Rain Rain Rain Rain Rain Rain Rain
1% 1% 1% 1% 1% 1% 1% 1% 21% 21% 21% 21% 21% 21% 22% 22% 22% 22% 22% 22% 59% 59% 59% 59% 59% 59% 96% 96% 96% 96% 96% 96% 28% 28% 28% 28%
51°F11°C 51°F11°C 51°F11°C 50°F10°C 50°F10°C 50°F10°C 50°F10°C 50°F10°C 50°F10°C 49°F9°C 49°F9°C 49°F9°C 49°F9°C 49°F9°C 49°F9°C 50°F10°C 50°F10°C 51°F11°C 51°F11°C 52°F11°C 52°F11°C 53°F12°C 53°F12°C 53°F12°C 53°F12°C 53°F12°C 53°F12°C 53°F12°C 53°F12°C 53°F12°C 52°F11°C 52°F11°C 51°F11°C 51°F11°C 50°F10°C 49°F9°C
65% 70% 72% 72% 75% 77% 80% 83% 83% 83% 83% 83% 86% 86% 77% 72% 65% 63% 58% 57% 57% 59% 59% 63% 65% 70% 72% 75% 78% 80% 80% 83% 83% 86% 86% 86%
SSW SSW SSW SW SW SW SW SW SSE S SSE SSE SSE SE SSE S S S S SSE SSE SSE SSE S S S SSE SW SW SW SSW SSW SSW SSW SSW SSW
7 mph 7 mph 7 mph 6 mph 6 mph 6 mph 3 mph 3 mph 3 mph 3 mph 3 mph 3 mph 4 mph 4 mph 4 mph 8 mph 8 mph 8 mph 11 mph 11 mph 11 mph 9 mph 9 mph 9 mph 10 mph 10 mph 10 mph 14 mph 14 mph 14 mph 14 mph 14 mph 14 mph 11 mph 11 mph 11 mph
10 mi16 km 10 mi16 km 10 mi16 km 10 mi16 km 10 mi16 km 10 mi16 km 10 mi16 km 10 mi16 km 10 mi16 km 10 mi16 km 10 mi16 km 10 mi16 km 10 mi16 km 10 mi16 km 10 mi16 km 10 mi16 km 10 mi16 km 10 mi16 km 10 mi16 km 10 mi16 km 10 mi16 km 10 mi16 km 10 mi16 km 10 mi16 km 10 mi16 km 10 mi16 km 10 mi16 km 10 mi16 km 10 mi16 km 10 mi16 km 10 mi16 km 10 mi16 km 10 mi16 km 10 mi16 km 10 mi16 km 10 mi16 km
Hour (EDT)
Weather
Clouds
Temperature
Precip. Type
POP
Dewpoint
Humidity
Wind Direction
Wind Speed
Visibility
POP = Probability of Precipitation. ** Indicates missing data/values from model statistics.

24 Hour Forecast

Tonight - Partly cloudy. Lows in the lower 50s. Southwest winds around 5 mph.
Thursday - Partly sunny. A chance of showers in the afternoon. Highs in the lower 70s. South winds 10 to 15 mph. Chance of rain 50%.

48 Hour Forecast API Feed


Wed, Oct 20
7:00 pm

Wed, Oct 20
8:00 pm

Wed, Oct 20
9:00 pm

Wed, Oct 20
10:00 pm

Wed, Oct 20
11:00 pm

Thu, Oct 21
Midnight

Thu, Oct 21
1:00 am

Thu, Oct 21
2:00 am

Thu, Oct 21
3:00 am

Thu, Oct 21
4:00 am

Thu, Oct 21
5:00 am

Thu, Oct 21
6:00 am

Thu, Oct 21
7:00 am

Thu, Oct 21
8:00 am

Thu, Oct 21
9:00 am

Thu, Oct 21
10:00 am

Thu, Oct 21
11:00 am

Thu, Oct 21
Noon

Thu, Oct 21
1:00 pm

Thu, Oct 21
2:00 pm

Thu, Oct 21
3:00 pm

Thu, Oct 21
4:00 pm

Thu, Oct 21
5:00 pm

Thu, Oct 21
6:00 pm

Thu, Oct 21
7:00 pm

Thu, Oct 21
8:00 pm

Thu, Oct 21
9:00 pm

Thu, Oct 21
10:00 pm

Thu, Oct 21
11:00 pm

Fri, Oct 22
Midnight

Fri, Oct 22
1:00 am

Fri, Oct 22
2:00 am

Fri, Oct 22
3:00 am

Fri, Oct 22
4:00 am

Fri, Oct 22
5:00 am

Fri, Oct 22
6:00 am

Fri, Oct 22
7:00 am

Fri, Oct 22
8:00 am

Fri, Oct 22
9:00 am

Fri, Oct 22
10:00 am

Fri, Oct 22
11:00 am

Fri, Oct 22
Noon

Fri, Oct 22
1:00 pm

Fri, Oct 22
2:00 pm

Fri, Oct 22
3:00 pm

Fri, Oct 22
4:00 pm

Fri, Oct 22
5:00 pm

Fri, Oct 22
6:00 pm
Partly CloudyPatchy Rain PossiblePartly CloudyPartly CloudyPartly CloudyClearClearPartly CloudyClearPartly CloudyPartly CloudyPartly CloudyPatchy Rain PossiblePartly CloudySunnySunnySunnyPartly CloudyPartly CloudySunnySunnyPartly CloudyPartly CloudyLight Rain ShowerLight Rain ShowerHeavy RainModerate Rain At TimesModerate RainModerate Rain At TimesPatchy Rain PossiblePatchy Rain PossibleModerate Rain At TimesPartly CloudyOvercastOvercastOvercastOvercastOvercastOvercastOvercastPatchy Rain PossibleOvercastOvercastCloudyPartly CloudySunnySunnySunny
Partly cloudy Patchy rain possible Partly cloudy Partly cloudy Partly cloudy Clear Clear Partly cloudy Clear Partly cloudy Partly cloudy Partly cloudy Patchy rain possible Partly cloudy Sunny Sunny Sunny Partly cloudy Partly cloudy Sunny Sunny Partly cloudy Partly cloudy Light rain showers Light rain showers Heavy rain Moderate rain at times Moderate rain Moderate rain at times Patchy rain possible Patchy rain possible Moderate rain at times Partly cloudy Overcast Overcast Overcast Overcast Overcast Overcast Overcast Patchy rain possible Overcast Overcast Cloudy Partly cloudy Sunny Sunny Sunny
61°F
16°C
58°F
14°C
56°F
13°C
56°F
13°C
54°F
12°C
53°F
12°C
52°F
11°C
51°F
11°C
51°F
11°C
51°F
11°C
51°F
11°C
51°F
11°C
51°F
11°C
52°F
11°C
54°F
12°C
57°F
14°C
62°F
16°C
64°F
18°C
67°F
19°C
68°F
20°C
69°F
21°C
68°F
20°C
67°F
20°C
62°F
17°C
59°F
15°C
59°F
15°C
57°F
14°C
57°F
14°C
57°F
14°C
56°F
13°C
54°F
12°C
53°F
11°C
52°F
11°C
51°F
10°C
51°F
11°C
52°F
11°C
51°F
10°C
50°F
10°C
49°F
9°C
48°F
9°C
48°F
9°C
48°F
9°C
49°F
9°C
49°F
10°C
51°F
10°C
53°F
11°C
51°F
11°C
46°F
8°C
51°F
11°C
49°F
9°C
47°F
9°C
47°F
8°C
47°F
8°C
46°F
8°C
46°F
8°C
46°F
8°C
46°F
8°C
46°F
8°C
45°F
7°C
45°F
7°C
46°F
8°C
46°F
8°C
48°F
9°C
49°F
9°C
51°F
11°C
52°F
11°C
52°F
11°C
54°F
12°C
57°F
14°C
57°F
14°C
57°F
14°C
58°F
15°C
58°F
14°C
58°F
14°C
54°F
12°C
55°F
13°C
54°F
12°C
52°F
11°C
51°F
10°C
49°F
10°C
49°F
9°C
48°F
9°C
49°F
9°C
49°F
10°C
48°F
9°C
47°F
8°C
45°F
7°C
45°F
7°C
44°F
7°C
43°F
6°C
43°F
6°C
41°F
5°C
40°F
4°C
40°F
4°C
41°F
5°C
38°F
3°C
29.97 in
1015 mb
29.97 in
1015 mb
29.97 in
1015 mb
29.97 in
1015 mb
29.97 in
1015 mb
29.97 in
1015 mb
29.97 in
1015 mb
29.97 in
1015 mb
29.94 in
1014 mb
29.94 in
1014 mb
29.94 in
1014 mb
29.97 in
1015 mb
29.94 in
1014 mb
29.94 in
1014 mb
29.94 in
1014 mb
29.91 in
1013 mb
29.88 in
1012 mb
29.85 in
1011 mb
29.83 in
1010 mb
29.8 in
1009 mb
29.8 in
1009 mb
29.77 in
1008 mb
29.74 in
1007 mb
29.74 in
1007 mb
29.74 in
1007 mb
29.71 in
1006 mb
29.71 in
1006 mb
29.71 in
1006 mb
29.74 in
1007 mb
29.74 in
1007 mb
29.74 in
1007 mb
29.77 in
1008 mb
29.77 in
1008 mb
29.77 in
1008 mb
29.8 in
1009 mb
29.83 in
1010 mb
29.83 in
1010 mb
29.88 in
1012 mb
29.91 in
1013 mb
29.94 in
1014 mb
29.94 in
1014 mb
29.97 in
1015 mb
29.97 in
1015 mb
29.97 in
1015 mb
29.97 in
1015 mb
29.97 in
1015 mb
29.97 in
1015 mb
30 in
1016 mb
71%71%73%71%76%78%79%81%81%81%81%81%81%82%79%74%68%64%60%62%65%67%70%89%96%96%90%91%90%87%89%89%90%90%91%92%91%89%88%87%85%83%79%72%66%62%66%74%
WSWWSWWSWSWSWSWSWSSWSSWSSWSSWSSWSSWSWSSSESSSSWSSWSSWSSWSSWSSWSSWSSWSWSWWSWWSWWSWWSWWSWWSWWWNWWNWNWNWNWWNWWNWWNWWNWWNWWNWNW
9 mph
14 km/h
9 mph
14 km/h
8 mph
13 km/h
8 mph
13 km/h
8 mph
13 km/h
8 mph
13 km/h
7 mph
12 km/h
7 mph
11 km/h
6 mph
10 km/h
6 mph
9 km/h
6 mph
9 km/h
6 mph
9 km/h
5 mph
8 km/h
4 mph
6 km/h
5 mph
8 km/h
6 mph
10 km/h
9 mph
15 km/h
11 mph
18 km/h
12 mph
19 km/h
13 mph
20 km/h
11 mph
18 km/h
10 mph
16 km/h
8 mph
13 km/h
9 mph
14 km/h
5 mph
8 km/h
12 mph
19 km/h
17 mph
28 km/h
17 mph
27 km/h
12 mph
19 km/h
14 mph
22 km/h
13 mph
21 km/h
13 mph
21 km/h
13 mph
20 km/h
12 mph
19 km/h
11 mph
17 km/h
10 mph
16 km/h
10 mph
15 km/h
10 mph
16 km/h
10 mph
15 km/h
9 mph
14 km/h
8 mph
13 km/h
8 mph
13 km/h
8 mph
12 km/h
8 mph
13 km/h
7 mph
12 km/h
8 mph
13 km/h
8 mph
12 km/h
6 mph
10 km/h
0%64%0%0%0%0%0%0%0%0%0%0%87%0%0%0%0%0%0%0%0%0%0%88%88%88%87%87%69%84%89%76%0%0%0%0%0%0%0%0%71%0%0%0%0%0%0%0%
6 mi
10 km
6 mi
10 km
6 mi
10 km
6 mi
10 km
6 mi
10 km
6 mi
10 km
6 mi
10 km
6 mi
10 km
6 mi
10 km
6 mi
10 km
6 mi
10 km
6 mi
10 km
6 mi
10 km
6 mi
10 km
6 mi
10 km
6 mi
10 km
6 mi
10 km
6 mi
10 km
6 mi
10 km
6 mi
10 km
6 mi
10 km
6 mi
10 km
6 mi
10 km
6 mi
10 km
6 mi
10 km
3 mi
5 km
5 mi
8 km
4 mi
7 km
5 mi
8 km
6 mi
9 km
6 mi
9 km
5 mi
8 km
6 mi
10 km
6 mi
10 km
6 mi
10 km
6 mi
10 km
6 mi
10 km
6 mi
10 km
6 mi
10 km
6 mi
10 km
6 mi
10 km
6 mi
10 km
6 mi
10 km
6 mi
10 km
6 mi
10 km
6 mi
10 km
6 mi
10 km
6 mi
10 km

Day/Time
Weather
Condition
Temperature
Dew Point
Pressure
Humidity
Wind Direction
Wind Speed
Prob Precip %
Visibility
Prob Precip % = Probability of Precipitation.